When you browse on this site, cookies collect data to enhance your experience and personalize the content and advertising you see.
Visit our Privacy Policy to learn more. By continuing to use the site, you agree to this use of cookies and data.
  • In Spain
  • List of Countries
  • For 7 days
  • Water Temperature
  • Satellite Maps
  • Weather Map
  • Weather Widgets
  • user-avatar
    Login

    Hourly Weather Santa Cruz

    Today, 18 January, Friday

    Time Temperature Precipitation Wind Pressure Humidity
    00:00 +27°C° 0 mm 4 mps 723 mmHg 75%
    01:00 +27°C° 0 mm 3 mps 723 mmHg 77%
    02:00 +26°C° 0 mm 3 mps 723 mmHg 79%
    03:00 +26°C° 0 mm 3 mps 723 mmHg 81%
    04:00 +26°C° 0 mm 3 mps 723 mmHg 83%
    05:00 +25°C° 0 mm 2 mps 723 mmHg 85%
    06:00 +26°C° 0 mm 3 mps 724 mmHg 81%
    07:00 +27°C° 0 mm 3 mps 724 mmHg 76%
    08:00 +28°C° 0 mm 3 mps 725 mmHg 72%
    09:00 +29°C° 1.2 mm 3 mps 725 mmHg 72%
    10:00 +30°C° 1.2 mm 3 mps 726 mmHg 71%
    11:00 +31°C° 1.2 mm 2 mps 726 mmHg 71%
    12:00 +29°C° 1.7 mm 4 mps 725 mmHg 70%
    13:00 +28°C° 1.7 mm 5 mps 725 mmHg 69%
    14:00 +27°C° 1.7 mm 6 mps 725 mmHg 68%
    15:00 +27°C° 0 mm 6 mps 724 mmHg 64%
    16:00 +28°C° 0 mm 6 mps 724 mmHg 60%
    17:00 +28°C° 0 mm 5 mps 724 mmHg 56%
    18:00 +27°C° 0 mm 5 mps 724 mmHg 58%
    19:00 +26°C° 0 mm 5 mps 724 mmHg 60%
    20:00 +25°C° 0 mm 4 mps 724 mmHg 62%
    21:00 +23°C° 0 mm 4 mps 725 mmHg 63%
    22:00 +23°C° 0 mm 4 mps 725 mmHg 64%
    23:00 +23°C° 0 mm 4 mps 726 mmHg 65%

    Tomorrow, 19 January, Saturday

    Time Temperature Precipitation Wind Pressure Humidity
    00:00 +23°C° 0 mm 4 mps 725 mmHg 66%
    01:00 +22°C° 0 mm 4 mps 725 mmHg 67%
    02:00 +22°C° 0 mm 4 mps 725 mmHg 67%
    03:00 +22°C° 0 mm 4 mps 725 mmHg 68%
    04:00 +22°C° 0 mm 4 mps 725 mmHg 68%
    05:00 +22°C° 0 mm 4 mps 725 mmHg 68%
    06:00 +23°C° 0 mm 4 mps 725 mmHg 66%
    07:00 +23°C° 0 mm 5 mps 726 mmHg 64%
    08:00 +25°C° 0 mm 5 mps 726 mmHg 62%
    09:00 +27°C° 0 mm 5 mps 727 mmHg 56%
    10:00 +29°C° 0 mm 5 mps 727 mmHg 50%
    11:00 +32°C° 0 mm 4 mps 727 mmHg 44%
    12:00 +33°C° 0 mm 4 mps 726 mmHg 41%
    13:00 +34°C° 0 mm 3 mps 725 mmHg 38%
    14:00 +36°C° 0 mm 3 mps 724 mmHg 35%
    15:00 +36°C° 0 mm 2 mps 723 mmHg 36%
    16:00 +36°C° 0 mm 2 mps 722 mmHg 36%
    17:00 +35°C° 0 mm 1 mps 722 mmHg 37%
    18:00 +33°C° 0 mm 1 mps 722 mmHg 41%
    19:00 +31°C° 0 mm 1 mps 723 mmHg 45%
    20:00 +29°C° 0 mm 1 mps 723 mmHg 50%
    21:00 +29°C° 0 mm 1 mps 724 mmHg 49%
    22:00 +29°C° 0 mm 1 mps 724 mmHg 49%
    23:00 +29°C° 0 mm 2 mps 725 mmHg 49%

    Day after tomorrow, 20 January, Sunday

    Time Temperature Precipitation Wind Pressure Humidity
    00:00 +29°C° 0 mm 2 mps 724 mmHg 48%
    01:00 +28°C° 0 mm 2 mps 724 mmHg 48%
    02:00 +28°C° 0 mm 2 mps 723 mmHg 48%
    03:00 +28°C° 0 mm 2 mps 723 mmHg 48%
    04:00 +27°C° 0 mm 3 mps 723 mmHg 48%
    05:00 +27°C° 0 mm 3 mps 723 mmHg 49%
    06:00 +27°C° 0 mm 3 mps 723 mmHg 49%
    07:00 +28°C° 0 mm 3 mps 724 mmHg 48%
    08:00 +28°C° 0 mm 3 mps 724 mmHg 48%
    09:00 +30°C° 0 mm 2 mps 724 mmHg 44%
    10:00 +34°C° 0 mm 2 mps 724 mmHg 40%
    11:00 +36°C° 0 mm 2 mps 725 mmHg 36%
    12:00 +36°C° 0 mm 2 mps 724 mmHg 35%
    13:00 +37°C° 0 mm 2 mps 723 mmHg 34%
    14:00 +38°C° 0 mm 2 mps 722 mmHg 33%
    15:00 +37°C° 0 mm 2 mps 721 mmHg 35%
    16:00 +37°C° 0 mm 3 mps 721 mmHg 38%
    17:00 +36°C° 0 mm 3 mps 720 mmHg 41%
    18:00 +34°C° 0 mm 2 mps 720 mmHg 46%
    19:00 +31°C° 0 mm 2 mps 721 mmHg 52%
    20:00 +29°C° 0 mm 1 mps 721 mmHg 58%
    21:00 +29°C° 0 mm 1 mps 721 mmHg 59%
    22:00 +28°C° 0 mm 1 mps 722 mmHg 60%
    23:00 +28°C° 0 mm 1 mps 722 mmHg 62%

    21 January, Monday

    Time Temperature Precipitation Wind Pressure Humidity
    00:00 +27°C° 0 mm 1 mps 722 mmHg 62%
    01:00 +27°C° 0 mm 1 mps 721 mmHg 63%
    02:00 +27°C° 0 mm 1 mps 721 mmHg 64%
    03:00 +26°C° 0 mm 1 mps 721 mmHg 65%
    04:00 +26°C° 0 mm 1 mps 721 mmHg 66%
    05:00 +26°C° 0 mm 2 mps 721 mmHg 68%
    06:00 +27°C° 0 mm 2 mps 722 mmHg 66%
    07:00 +28°C° 0 mm 3 mps 722 mmHg 64%
    08:00 +29°C° 0 mm 3 mps 723 mmHg 61%
    09:00 +32°C° 0 mm 4 mps 723 mmHg 56%
    10:00 +34°C° 0 mm 4 mps 723 mmHg 50%
    11:00 +36°C° 0 mm 5 mps 723 mmHg 44%
    12:00 +37°C° 0 mm 5 mps 722 mmHg 42%
    13:00 +39°C° 0 mm 5 mps 721 mmHg 40%
    14:00 +39°C° 0 mm 5 mps 720 mmHg 38%
    15:00 +38°C° 0 mm 4 mps 720 mmHg 39%
    16:00 +38°C° 0 mm 4 mps 720 mmHg 40%
    17:00 +37°C° 0 mm 4 mps 719 mmHg 41%
    18:00 +36°C° 0 mm 3 mps 720 mmHg 47%
    19:00 +34°C° 0 mm 3 mps 720 mmHg 52%
    20:00 +31°C° 0 mm 2 mps 721 mmHg 58%
    21:00 +31°C° 0 mm 2 mps 722 mmHg 60%
    22:00 +30°C° 0 mm 2 mps 722 mmHg 62%
    23:00 +29°C° 0 mm 2 mps 723 mmHg 64%

    22 January, Tuesday

    Time Temperature Precipitation Wind Pressure Humidity
    00:00 +28°C° 0.5 mm 2 mps 723 mmHg 71%
    01:00 +28°C° 0.5 mm 2 mps 722 mmHg 77%
    02:00 +27°C° 0.5 mm 2 mps 722 mmHg 83%
    03:00 +26°C° 0 mm 2 mps 722 mmHg 83%
    04:00 +26°C° 0 mm 2 mps 722 mmHg 84%
    05:00 +26°C° 0 mm 2 mps 722 mmHg 84%
    06:00 +27°C° 0 mm 3 mps 723 mmHg 79%
    07:00 +28°C° 0 mm 3 mps 723 mmHg 73%
    08:00 +29°C° 0 mm 4 mps 724 mmHg 68%
    09:00 +32°C° 0 mm 4 mps 724 mmHg 62%
    10:00 +33°C° 0 mm 5 mps 724 mmHg 56%
    11:00 +35°C° 0 mm 5 mps 724 mmHg 50%
    12:00 +36°C° 0 mm 5 mps 723 mmHg 48%
    13:00 +36°C° 0 mm 5 mps 722 mmHg 46%
    14:00 +37°C° 0 mm 5 mps 721 mmHg 44%
    15:00 +36°C° 0 mm 5 mps 721 mmHg 46%
    16:00 +36°C° 0 mm 5 mps 720 mmHg 48%
    17:00 +36°C° 0 mm 5 mps 720 mmHg 50%
    18:00 +34°C° 0 mm 4 mps 720 mmHg 55%
    19:00 +33°C° 0 mm 4 mps 721 mmHg 60%
    20:00 +30°C° 0 mm 3 mps 721 mmHg 66%
    21:00 +29°C° 0 mm 4 mps 722 mmHg 70%
    22:00 +28°C° 0 mm 4 mps 722 mmHg 75%
    23:00 +27°C° 0 mm 4 mps 723 mmHg 80%

    23 January, Wednesday

    Time Temperature Precipitation Wind Pressure Humidity
    00:00 +27°C° 0 mm 4 mps 722 mmHg 81%
    01:00 +27°C° 0 mm 4 mps 722 mmHg 82%
    02:00 +27°C° 0 mm 5 mps 722 mmHg 82%
    03:00 +26°C° 0 mm 4 mps 722 mmHg 82%
    04:00 +26°C° 0 mm 4 mps 722 mmHg 82%
    05:00 +26°C° 0 mm 4 mps 722 mmHg 82%
    06:00 +26°C° 0 mm 5 mps 722 mmHg 81%
    07:00 +27°C° 0 mm 5 mps 723 mmHg 80%
    08:00 +27°C° 0 mm 5 mps 723 mmHg 78%
    09:00 +29°C° 0 mm 5 mps 723 mmHg 72%
    10:00 +32°C° 0 mm 6 mps 723 mmHg 65%
    11:00 +33°C° 0 mm 6 mps 723 mmHg 58%
    12:00 +34°C° 0 mm 6 mps 722 mmHg 54%
    13:00 +35°C° 0 mm 6 mps 721 mmHg 50%
    14:00 +38°C° 0 mm 6 mps 720 mmHg 46%
    15:00 +36°C° 0 mm 6 mps 720 mmHg 47%
    16:00 +36°C° 0 mm 6 mps 719 mmHg 48%
    17:00 +35°C° 0 mm 6 mps 719 mmHg 49%
    18:00 +34°C° 0 mm 5 mps 719 mmHg 54%
    19:00 +32°C° 0 mm 4 mps 720 mmHg 60%
    20:00 +30°C° 0 mm 3 mps 720 mmHg 66%
    21:00 +29°C° 0 mm 4 mps 721 mmHg 68%
    22:00 +29°C° 0 mm 4 mps 722 mmHg 70%
    23:00 +29°C° 0 mm 4 mps 722 mmHg 71%
    Show more